User: anonymous   Login
Location: Unspecified
(0.0000°N, 0.0000°E)
Time: 10:28:06
(UTC+00:00)
Language:

Tiros 1 despin weight - Orbit

View from above orbital plane
View from above orbital plane
View from above satellite
View from above satellite

Ground track
Ground track

The orbit data is extracted from the following two-line orbital elements,

1 00115U 60002D   15125.42788868  .00001039  00000-0  15570-3 0  9994
2 00115 048.1669 259.4152 0035884 292.6137 067.0981 14.82006119935403
Epoch (UTC): 05 May 2015 10:16:09
Eccentricity: 0.0035884
inclination: 48.1669°
perigee height: 598 km
apogee height: 648 km
right ascension of ascending node: 259.4152°
argument of perigee: 292.6137°
revolutions per day: 14.82006119
mean anomaly at epoch: 67.0981°
orbit number at epoch: 93540

The dashed part of the orbit path shows where the satellite is in the earth's shadow,  

DLR